www.pogodaiklimat.ru

Погода и климат >> Архив погоды >> Россия >> Красноярский край >> Шалинское


ПОГОДА в Шалинском

  • Прогноз погоды в Шалинском
  • Монитор погоды в Шалинском

АРХИВ ПОГОДЫ в Шалинском

Время (UTC), дата Ветер
(напр.,м/с)
 
Видим.   Явления Облачность Т
(С)
Тd
(С)
f
(%)
Тe
(С)
Тes
(С)
Комфортность P
(гПа)
Po
(гПа)
Тmin
(С)
Tmax
(С)
R
(мм)
R24
(мм)
S
(см)
09 17.04 ЮЗ 5
{12}
50 км 9/8 600 м
[Cu med, cong Ci fib]
+7.0 -10.2 28 +4 +5 1010.2 962.3
12 17.04 ЮЗ 5
{12}
50 км 6/4 1000 м
[Cu med, cong Ci fib]
+6.7 -9.7 30 +3 +4 1008.1 960.3 +8.2
15 17.04 Ю 2 50 км 4/0
[Ci fib]
+2.0 -10.2 40 -0 -0 1008.3 959.6
18 17.04 Ю 2 50 км 3/0
[Ci fib]
-0.1 -9.1 51 -3 -3 1007.1 958.1
21 17.04 Ю 2 50 км 6/0
[Ac lent Ci fib]
+1.2 -6.3 57 -2 -2 1004.0 955.5
00 18.04 Ю 3 50 км 6/3 600 м
[Cb cap Ac lent Ci fib]
+2.9 -6.3 51 -0 0 1000.5 952.4 -0.8
03 18.04 ЮВ 2
{16}
50 км {ливн. осадки} 10/10 600 м
[Cb cap]
+3.9 -0.4 74 +1 +1 996.1 948.5
06 18.04 ЮЗ 6-12
{18}
4000 м слаб. ливневой дождь 10/10 600 м
[Cb cap]
+4.7 +2.5 86 -1 -1 993.1 945.6
09 18.04 ЮЗ 8-17
{19}
1000 м ливневой снег 10/10 600 м
[Cb cap]
+1.7 +0.1 89 -5 -5 996.8 948.7
12 18.04 З 4-11
{19}
50 км в посл. час ливневой снег 8/6 600 м
[Cb cap Ci fib]
-0.4 -4.1 76 -6 -6 1004.0 955.2 +9.9 4
15 18.04 З 6-11
{16}
50 км {ливн. осадки, метель} 9/6 600 м
[Cb cap Ci fib]
-3.6 -9.7 63 -11 -11 1008.3 958.8
18 18.04 З 9-15
{19}
50 км {ливн. осадки, метель} 9/8 600 м
[Cb cap Ci fib]
-7.4 -17.0 46 -17 -17 1013.0 962.5
21 18.04 ЮЗ 7-13
{19}
50 км 10/10 600 м
[Cb cap]
-9.2 -14.2 67 -18 -18 1016.7 965.6
00 19.04 ЮЗ 8-15
{17}
10 км слаб. ливневой снег {метель} 10/10 600 м
[Cb cap]
-7.8 -11.8 73 -17 -17 1018.8 967.8 -9.3 0.2 2
03 19.04 ЮЗ 9-16
{17}
10 км слаб. ливневой снег {метель} 9/8 600 м
[Cb cap Ci fib]
-6.1 -10.5 71 -15 -15 1021.5 970.8
06 19.04 ЮЗ 9-16
{17}
50 км в посл. час ливневой снег {метель} 8/8 600 м
[Cb cap Ci fib]
-3.0 -8.8 64 -11 -11 1023.4 973.1
09 19.04 ЮЗ 7-14
{18}
50 км {ливн. осадки} 8/8 600 м
[Cb cap]
+0.4 -12.3 38 -6 -5 1022.9 973.3
12 19.04 З 6
{18}
50 км {ливн. осадки} 1/1 1000 м
[Cu hum]
+0.2 -14.0 33 -5 -5 1022.9 973.1 +0.7 0.0
15 19.04 З 2
{11}
50 км ясно -2.7 -14.5 40 -6 -6 1023.5 973.2
18 19.04 З 2
{11}
50 км ясно -4.8 -14.2 48 -8 -8 1022.7 972.1
21 19.04 З 3 50 км ясно -7.6 -13.6 62 -13 -13 1021.2 970.3
00 20.04 ЮЗ 1 50 км 3/0
[Ci fib]
-9.0 -12.9 73 -11 -10 1020.1 968.9 -10.5
03 20.04 В 1 50 км 1/0
[Ci fib]
+0.5 -12.1 38 -0 +9 1016.5 967.2
06 20.04 В 1 50 км 8/0
[Ci fib]
+4.0 -12.0 30 +4 +15 опасность
простуды
1012.9 964.4
09 20.04 З 4 50 км 9/0
[Ac trans Ci fib]
+5.9 -16.5 18 +3 +6 1010.3 962.2
12 20.04 ЮЗ 2 50 км 9/0
[Ac lent Ci fib]
+6.2 -15.6 19 +5 +5 1008.7 960.7 +7.7
15 20.04 З 1 50 км 8/0
[Ac lent Ci fib]
0.0 -12.0 40 -1 -1 1009.4 960.3
18 20.04 ЮЗ 2 50 км 8/0
[Ac lent Ci fib]
-3.0 -12.7 47 -6 -6 1008.9 959.3
21 20.04 ЮЗ 1 50 км 9/0
[Ac lent Ci fib]
-5.5 -10.6 67 -8 -8 1008.5 958.6
00 21.04 З 1 50 км 9/0
[Ac lent Ci fib]
-4.0 -8.5 71 -6 -5 1008.6 958.9 -6.0
03 21.04 СЗ 2 50 км 10/10 600 м
[Cb cap]
+2.2 -9.8 41 -0 -0 1007.8 959.3
06 21.04 З 5
{10}
50 км 10/10 600 м
[Cb cap]
+3.8 -10.0 36 -0 -0 1008.1 959.8
09 21.04 ЮЗ 6-10
{11}
50 км 9/8 600 м
[Cb cap Ci fib]
+5.2 -8.9 35 +1 +2 1008.3 960.3
12 21.04 ЮЗ 3
{14}
50 км в посл. час ливневой снег 10/10 600 м
[Cb cap]
-0.3 -0.6 98 -5 -5 1011.7 962.5 +5.5 1
15 21.04 СЗ 2 10 км слаб. ливневой снег 10/10 600 м
[Cb cap]
-1.2 -1.6 97 -5 -5 1014.1 964.7
18 21.04 З 2 50 км {ливн. осадки} 9/0
[Ac lent Ci fib]
-5.2 -8 -8 1017.6 967.4
21 21.04 СЗ 3 50 км в посл. час ливневой снег 9/8
[Cb cap Ci fib]
-4.0 -8.1 73 -9 -9 1020.1 969.8
00 22.04 З 2 50 км {ливн. осадки} 9/4 600 м
[Cb cap Ci fib]
-5.4 -10.0 70 -9 -9 1022.4 971.8 -5.5 2 4
03 22.04 З 4 50 км {ливн. осадки} 9/8 600 м
[Cb cap Ac trans Ci fib]
-3.6 -11.6 54 -9 -8 1024.1 973.8
06 22.04 З 4 50 км {ливн. осадки} 8/8 1000 м
[Cu med, cong]
-0.6 -7.8 58 -6 -4 1024.2 974.4
09 22.04 З 4
{10}
50 км 3/3 1000 м
[Cu med, cong]
+2.6 -8.6 43 -1 +2 1023.4 974.2
12 22.04 СЗ 2
{10}
50 км 1/1 1000 м
[Cu hum]
+3.3 -9.4 39 +1 +2 1022.9 973.9 +4.1 0.0
15 22.04 ЮЗ 2 50 км ясно -1.9 -9.9 54 -5 -5 1025.0 974.9
18 22.04 З 3 50 км ясно -3.7 -9.9 62 -9 -9 1026.1 975.7
21 22.04 ЮЗ 2 50 км ясно -7.2 -10.2 79 -12 -12 1026.9 975.7
00 23.04 ЮЗ 1 50 км ясно -5.1 -9.2 73 -7 -6 1026.9 976.1 -8.5
03 23.04 н/о -10.2 1024.9 976.1
06 23.04 Ю 1 50 км 1/1 1000 м
[Cu hum]
+7.6 -11.2 25 +8 +21 опасность
простуды
1022.8 974.5
09 23.04 З 2 50 км 3/3 1000 м
[Cu hum]
+9.9 -8.7 26 +9 +14 1020.3 972.4
12 23.04 СВ 1 50 км ясно +9.8 -8.4 27 +10 +11 1018.7 970.9 +10.9
15 23.04 Ю 1 50 км ясно +4.2 -9.8 35 +4 +4 1019.0 970.3
18 23.04 штиль 0 50 км ясно -1.4 -7.7 62 -2 -2 1019.3 969.5
21 23.04 ЮЗ 1 50 км ясно -4.4 -8.7 72 -6 -6 1018.6 968.4
00 24.04 ЮЗ 1 50 км 1/0
[Ac trans]
-4.2 -7.2 80 -6 -5 1017.8 967.6 -6.6
03 24.04 ЮЗ 1 50 км 4/0
[Ac trans]
+7.8 -10.1 27 +8 +15 1014.8 966.9
06 24.04 ЮЗ 2 50 км 4/3 1000 м
[Cu med, cong Ci fib]
+13.3 -11.6 17 +13 +22 1012.6 965.7

 

Местоположение метеостанции Шалинское (Красноярский край, Россия): широта 55.72 долгота 93.75 высота над уровнем моря 399 м.

В архиве по умолчанию представлена погода в Шалинском за последнюю неделю. Архивные данные за месяц целиком и за предыдущие месяцы, начиная с января 2011 года, Вы можете получить, выбрав интересующий диапазон дат из раскрывающегося списка и нажав кнопку "Ввод!".


*Определитесь, кто Вы:
робот инопланетянин человек

Внимание! Время в таблицах - всемирное. Для получения местного времени необходимо прибавить поправку, которая равна 7 ч.

Смотрите также архив погоды в соседних городах и на ближайших метеорологических станциях:

Погода в Уяре (Красноярский край, Россия) (37 км)
Погода в Железногорске (Красноярский край, Россия) (61 км)
Погода в Роевом Ручье (Красноярский край, Россия) (69 км)
Погода в Анастасино (Красноярский край, Россия) (71 км)
Погода в Красноярске (Красноярский край, Россия) (71 км)
Погода в Минино (Красноярский край, Россия) (75 км)
Погода в Погорельском Бору (Красноярский край, Россия) (88 км)
Погода в Агинском (Красноярский край, Россия) (88 км)
Погода в Сухобузимском (Красноярский край, Россия) (92 км)
Погода в Емельяново (Красноярский край, Россия) (93 км)

Пояснения к столбцам:

Ветер - указаны скорость ветра в м/с - средняя за 10 мин, порывы в срок и между сроками (в фигурных скобках) и направление, откуда дует ветер: С - северный, СВ - северо-восточный, В - восточный, ЮВ - юго-восточный, Ю - южный, ЮЗ - юго-западный, З - западный, СЗ - северо-западный.
Видимость - горизонтальная дальность видимости в метрах или километрах. При видимости от 1 до 10 км при отсутствии осадков обычно наблюдается дымка, при ухудшении видимости до 1 км и менее - туман. В сухую погоду видимость может ухудшаться дымом, пылью или мглою.
Явления - указаны атмосферные явления, наблюдавшиеся в срок или в последний час перед сроком; фигурными скобками обозначены явления, наблюдавшиеся между сроками (за 1-3 часа до срока); квадратными скобками обозначены град или гололедные отложения с указанием их диаметра в мм.
Облачность - указаны через наклонную черту общая и нижняя облачность в баллах и высота нижней границы облаков в метрах; квадратными скобками обозначены формы облаков: Ci - перистые, Cs - перисто-слоистые, Cc - перисто-кучевые, Ac - высококучевые, As - высокослоистые, Sc - слоисто-кучевые, Ns - слоисто-дождевые, Cu - кучевые, Cb - кучево-дождевые. Подробнее классификацию облаков см. в Атласе облаков (PDF).
T - Температура воздуха - температура, измеренная на высоте 2 м над землей.
Td - Температура точки росы - температура, при понижении до которой содержащийся в воздухе водяной пар достигнет насыщения.
f - Относительная влажность воздуха - влажноcть воздуха, измеренная на высоте 2 м над землей.
Te - Эффективная температура - температура, которую ощущает одетый по сезону человек в тени. Характеристика душности погоды. При расчете учитывается влияние влажности воздуха и скорости ветра на теплоощущения человека.
Tes - Эффективная температура на солнце - температура, которую ощущает человек, с поправкой на солнечный нагрев. Характеристика знойности погоды. Зависит от высоты солнца над горизонтом, облачности и скорости ветра. Ночью, в пасмурную погоду, а также при ветре 12 м/с и более поправка равна нулю.
P - Атмосферное давление - приведенное к уровню моря атмосферное давление.
Po - Атмосферное давление - измеренное на уровне метеостанции атмосферное давление.
Tmin - Минимальная температура - минимум температуры воздуха на высоте 2 м над землей.
Tmax - Максимальная температура - максимум температуры воздуха на высоте 2 м над землей.
R - Количество осадков - Количество выпавших осадков за период времени, мм. При наведении курсора мыши на число - период времени, за который выпало указанное количество осадков.
R24 - Количество осадков - Количество выпавших осадков за 24 часа, мм.
S - Снежный покров - Высота снежного покрова, см. При наведении курсора мыши на число - состояние снежного покрова и степень покрытия местности в баллах.